Tracking 25648 objects as of 16-May-2022
HD Live streaming from Space Station
objects crossing your sky now

COSMOS 2251 DEB

Track COSMOS 2251 DEB now!
10-day predictions


NORAD ID: 36371
Int'l Code: 1993-036AYY
Perigee: 741.1 km
Apogee: 769.3 km
Inclination: 74.0 °
Period: 99.8 minutes
Semi major axis: 7126 km
RCS: 0.0064 m2 (small)
Launch date: June 16, 1993
Source: Commonwealth of Independent States (former USSR) (CIS)
Launch site: PLESETSK MISSILE AND SPACE COMPLEX (PKMTR)

Note: This is SATELLITE DEBRIS
aabbcc
Your satellite tracking list
Your tracking list is empty




NASA's NSSDC Master Catalog

Two Line Element Set (TLE):
1 36371U 93036AYY 22134.63819153  .00003506  00000-0  10486-2 0  9994
2 36371  74.0238 114.6332 0019829 119.3124 241.0017 14.43160731524383
Source of the keplerian elements: AFSPC